View from above orbital plane
|
View from above satellite
|
Ground track
|
The orbit data is extracted from the following two-line orbital elements,
1 23432U 94083B 21059.52926595 .00000018 00000-0 16108-4 0 9997
2 23432 74.0348 344.8605 0006326 232.6350 300.3034 14.33553018369857
Epoch (UTC): | 28 February 2021 12:42:08 |
Eccentricity: | 0.0006326 |
inclination: | 74.0348° |
perigee height: | 775 km |
apogee height: | 784 km |
right ascension of ascending node: | 344.8605° |
argument of perigee: | 232.6350° |
revolutions per day: | 14.33553018 |
mean anomaly at epoch: | 300.3034° |
orbit number at epoch: | 36985 |
The dashed part of the orbit path shows where the satellite is in the earth's shadow,
|
|